This demonstration page uses our WeatherBlox Daily Observations layout. Learn more.

39.92423, -83.80882

Hourly Observations for May 22, 2017

Temp ( °F °C ) Dew Point ( °F °C ) Humidity (%) Winds ( mph kmh ) Pressure ( in mb ) Visibility ( mi km ) Precip ( " mm )
12:56 am 00:56 Clear 60 15.6 54 12.2 80 80 NW 13 20 30.04 1017 10 16.0934 0 0
1:56 am 01:56 Clear 58 14.4 52 11.1 81 81 WNW 12 19 30.04 1017 10 16.0934 0 0
2:56 am 02:56 Mostly Cloudy 56 13.3 51 10.6 84 84 WNW 8 13 30.05 1018 10 16.0934 0 0
3:56 am 03:56 Mostly Cloudy 55 12.8 49 9.4 80 80 WNW 18 30 30.06 1018 10 16.0934 0 0
4:07 am 04:07 Mostly Clear 55 13 48 9 77 77 WNW 15 24 30.06 1018 10 16.0934 0 0
4:56 am 04:56 Mostly Cloudy 52 11.1 45 7.2 77 77 WNW 12 19 30.08 1019 10 16.0934 0 0
5:56 am 05:56 Clear 49 9.4 44 6.7 83 83 W 6 9 30.09 1019 10 16.0934 0 0
6:56 am 06:56 Sunny 50 10 42 5.6 74 74 W 8 13 30.09 1019 10 16.0934 0 0
7:56 am 07:56 Sunny 52 11.1 42 5.6 69 69 W 10 17 30.1 1019 10 16.0934 0 0
8:56 am 08:56 Sunny 54 12.2 43 6.1 67 67 W 12 19 30.12 1020 10 16.0934 0 0
9:56 am 09:56 Sunny 57 13.9 43 6.1 60 60 W 16 26 30.13 1020 10 16.0934 0 0
10:56 am 10:56 Sunny 58 14.4 44 6.7 60 60 WNW 13 20 30.13 1020 10 16.0934 0 0
11:56 am 11:56 Sunny 59 15 44 6.7 58 58 W 15 24 30.13 1020 10 16.0934 0 0
12:56 pm 12:56 Sunny 61 16.1 43 6.1 52 52 WNW 8 13 30.11 1020 10 16.0934 0 0
1:56 pm 13:56 Sunny 63 17.2 44 6.7 50 50 W 7 11 30.1 1019 10 16.0934 0 0
2:56 pm 14:56 Sunny 63 17.2 42 5.6 47 47 Calm 30.09 1019 10 16.0934 0 0
3:56 pm 15:56 Sunny 67 19.4 46 7.8 47 47 W 8 13 30.07 1018 10 16.0934 0 0
4:56 pm 16:56 Sunny 68 20 46 7.8 45 45 VRB 5 7 30.05 1018 10 16.0934 0 0
5:56 pm 17:56 Sunny 68 20 46 7.8 45 45 NW 9 15 30.04 1017 10 16.0934 0 0
6:56 pm 18:56 Sunny 68 20 45 7.2 44 44 WSW 3 6 30.03 1017 10 16.0934 0 0
7:56 pm 19:56 Sunny 67 19.4 44 6.7 44 44 Calm 30.02 1017 10 16.0934 0 0
8:56 pm 20:56 Clear 62 16.7 52 11.1 70 70 SSE 3 6 30.03 1017 10 16.0934 0 0
9:56 pm 21:56 Clear 61 16.1 49 9.4 65 65 S 6 9 30.02 1017 10 16.0934 0 0
10:56 pm 22:56 Clear 59 15 48 8.9 67 67 S 6 9 30.03 1017 10 16.0934 0 0
11:56 pm 23:56 Clear 58 14.4 48 8.9 70 70 S 6 9 30.02 1017 10 16.0934 0 0

Powered by AerisWeather